M.P.E.C. 2023-M48 Issued 2023 June 19, 11:27 UT The Minor Planet Electronic Circulars contain information on unusual minor planets, routine data on comets and natural satellites, and occasional editorial announcements. They are published on behalf of Division F of the International Astronomical Union by the Minor Planet Center, Smithsonian Astrophysical Observatory, Cambridge, MA 02138, U.S.A. Prepared using the Tamkin Foundation Computer Network MPC@CFA.HARVARD.EDU URL https://www.minorplanetcenter.net/ ISSN 1523-6714 2023 MP Observations: K23M00P C2023 06 18.27721 17 30 10.80 +28 58 46.9 18.43gUEM048I41 K23M00P C2023 06 18.27755 17 30 09.70 +28 58 33.7 18.43gUEM048I41 K23M00P*1C2023 06 18.34018717 26 50.395+28 19 28.81 18.59GVEM048G96 K23M00P 1C2023 06 18.34936217 26 22.916+28 13 51.35 18.12GVEM048G96 K23M00P 1C2023 06 18.35916517 25 53.515+28 07 48.07 18.08GVEM048703 K23M00P 1C2023 06 18.36039517 25 49.825+28 07 03.50 17.43GVEM048703 K23M00P 1C2023 06 18.36063517 25 49.102+28 06 53.21 VEM048G96 K23M00P 1C2023 06 18.36162317 25 46.124+28 06 16.96 VEM048703 K23M00P 1C2023 06 18.36285317 25 42.460+28 05 31.96 VEM048703 K23M00P mC2023 06 18.42645717 22 39.385+27 26 48.01 18.02GVEM048I52 K23M00P mC2023 06 18.42665917 22 38.831+27 26 40.63 18.10GVEM048I52 K23M00P mC2023 06 18.42685317 22 38.294+27 26 33.65 18.07GVEM048I52 K23M00P mC2023 06 18.42704717 22 37.736+27 26 26.70 18.16GVEM048I52 K23M00P C2023 06 18.43817 17 22 09.39 +27 19 54.0 18.60gUEM048I41 K23M00P C2023 06 18.43851 17 22 08.38 +27 19 41.0 18.60gUEM048I41 K23M00P mC2023 06 18.45732417 21 15.095+27 08 20.87 18.16GVEM048I52 K23M00P mC2023 06 18.45753317 21 14.540+27 08 13.45 18.21GVEM048I52 K23M00P mC2023 06 18.45774517 21 13.979+27 08 05.89 18.18GVEM048I52 K23M00P mC2023 06 18.45794317 21 13.396+27 07 58.94 VEM048I52 K23M00P KC2023 06 18.65616517 13 33.21 +25 20 14.2 18.2 GVEM048900 K23M00P KC2023 06 18.66376917 13 15.09 +25 16 15.6 VEM048900 K23M00P KC2023 06 18.82867 17 07 55.14 +23 53 27.2 18.6 GVEM048C82 K23M00P KC2023 06 18.83444 17 07 43.15 +23 50 47.2 18.7 GVEM048C82 K23M00P KC2023 06 18.84014 17 07 31.31 +23 48 08.7 18.4 GVEM048C82 K23M00P KC2023 06 18.85124 17 07 08.28 +23 43 00.1 18.3 GVEM048C82 K23M00P 1C2023 06 18.85353117 07 02.100+23 41 03.20 VEM048246 K23M00P 1C2023 06 18.85362917 07 01.860+23 41 00.60 17.9 GVEM048246 K23M00P 1C2023 06 18.85392617 07 01.220+23 40 52.60 VEM048246 K23M00P KC2023 06 18.85854 17 06 53.17 +23 39 37.2 18.4 GVEM048C82 K23M00P 1C2023 06 18.86001117 06 48.760+23 38 03.60 VEM048246 K23M00P 1C2023 06 18.86011017 06 48.610+23 38 01.30 18.1 GVEM048246 K23M00P 1C2023 06 18.86030817 06 48.170+23 37 55.40 VEM048246 K23M00P 1C2023 06 18.86040717 06 48.010+23 37 52.50 18.2 GVEM048246 K23M00P 1C2023 06 18.86050617 06 47.780+23 37 49.60 VEM048246 K23M00P 1C2023 06 18.86060617 06 47.590+23 37 46.70 VEM048246 K23M00P 1C2023 06 18.86391317 06 40.840+23 36 15.50 VEM048246 K23M00P 1C2023 06 18.86401217 06 40.670+23 36 12.80 VEM048246 K23M00P 1C2023 06 18.86411117 06 40.440+23 36 09.70 VEM048246 K23M00P 1C2023 06 18.86421017 06 40.230+23 36 07.10 VEM048246 K23M00P 1C2023 06 18.86430917 06 40.000+23 36 04.30 VEM048246 K23M00P KC2023 06 18.87015 17 06 26.61 +23 33 23.2 17.7 GXEM048G02 K23M00P KC2023 06 18.87201 17 06 22.78 +23 32 31.4 17.8 GXEM048G02 K23M00P KC2023 06 18.87389 17 06 19.03 +23 31 39.8 17.9 GXEM048G02 K23M00P KC2023 06 18.87566517 06 16.83 +23 30 37.6 18.0 GVEM048G34 K23M00P KC2023 06 18.87800117 06 12.09 +23 29 33.6 18.3 GVEM048G34 K23M00P KC2023 06 18.88050417 06 07.05 +23 28 24.8 17.8 GVEM048G34 K23M00P KC2023 06 18.88300717 06 02.04 +23 27 16.5 18.3 GVEM048G34 K23M00P KC2023 06 18.88551117 05 56.98 +23 26 07.9 18.9 GVEM048G34 K23M00P KC2023 06 18.88801517 05 51.97 +23 24 58.7 18.5 GVEM048G34 K23M00P $C2023 06 18.89337017 05 55.063+23 24 27.57 18.0 GVEM048J04 K23M00P $C2023 06 18.89357717 05 54.653+23 24 22.48 18.2 GVEM048J04 K23M00P KC2023 06 18.89736117 05 34.90 +23 21 26.1 18.8 GVEM048104 K23M00P KC2023 06 18.90071817 05 28.16 +23 19 53.9 18.5 GVEM048104 K23M00P KC2023 06 18.90407417 05 21.45 +23 18 23.1 VEM048104 K23M00P KC2023 06 18.92335117 04 46.298+23 08 47.33 18.6 GVEM048Z80 K23M00P KC2023 06 18.93037717 04 32.446+23 05 40.60 19.1 GVEM048Z80 K23M00P 1C2023 06 18.93079 17 04 18.32 +23 06 02.8 18.5 GVEM048C40 K23M00P 1C2023 06 18.93207 17 04 15.74 +23 05 28.3 18.5 GVEM048C40 K23M00P 1C2023 06 18.93263 17 04 14.71 +23 05 13.2 18.4 GVEM048C40 K23M00P 1C2023 06 18.93363 17 04 12.78 +23 04 46.0 18.2 GVEM048C40 K23M00P KC2023 06 18.93429 17 04 22.18 +23 04 33.3 VEM048204 K23M00P 1C2023 06 18.93730 17 04 05.63 +23 03 05.6 18.5 GVEM048C40 K23M00P KC2023 06 18.93856117 04 16.582+23 02 00.53 18.7 GVEM048Z80 K23M00P KC2023 06 18.94004 17 04 10.92 +23 01 58.8 VEM048204 K23M00P 1C2023 06 18.94165 17 03 57.21 +23 01 08.4 18.4 GVEM048C40 K23M00P KC2023 06 18.94595 17 03 59.40 +22 59 20.6 18.2 GVEM048204 K23M00P KC2023 06 18.95929217 03 31.73 +22 53 26.0 18.5 GVEM048L01 K23M00P KC2023 06 18.96052917 03 29.34 +22 52 53.1 18.5 GVEM048L01 K23M00P KC2023 06 18.96079717 03 34.085+22 52 08.18 18.4 GVEM048J95 K23M00P KC2023 06 18.96210517 03 31.570+22 51 33.48 18.1 GVEM048J95 K23M00P KC2023 06 18.96225317 03 26.03 +22 52 06.9 18.5 GVEM048L01 K23M00P KC2023 06 18.96282217 03 24.95 +22 51 51.8 18.5 GVEM048L01 K23M00P KC2023 06 18.96338917 03 23.85 +22 51 36.8 18.5 GVEM048L01 K23M00P KC2023 06 18.96363317 03 28.666+22 50 53.05 18.3 GVEM048J95 K23M00P KC2023 06 18.96395617 03 22.77 +22 51 21.5 18.3 GVEM048L01 K23M00P KC2023 06 18.96432217 03 27.341+22 50 34.62 18.2 GVEM048J95 K23M00P KC2023 06 18.96499617 03 20.77 +22 50 53.6 18.3 GVEM048L01 K23M00P KB2023 06 18.99961517 02 38.496+22 42 23.78 18.2 GXEM048Y05 K23M00P KB2023 06 19.00164717 02 34.653+22 41 31.85 18.2 GXEM048Y05 K23M00P KB2023 06 19.00368417 02 30.758+22 40 39.71 18.0 GXEM048Y05 K23M00P KC2023 06 19.02982 17 01 15.16 +22 29 30.7 18.6 GVEM048M21 K23M00P HC2023 06 19.04159 17 00 53.58 +22 24 21.7 VEM048M21 K23M00P 1C2023 06 19.30755416 54 10.429+20 33 15.41 18.92GVEM048703 K23M00P 1C2023 06 19.30878716 54 08.460+20 32 47.36 18.37GVEM048703 K23M00P 1C2023 06 19.31002116 54 06.563+20 32 19.93 18.38GVEM048703 K23M00P 1C2023 06 19.31124916 54 04.601+20 31 51.96 18.04GVEM048703 K23M00P KB2023 06 19.31207 16 53 58.83 +20 30 44.6 18.1 rZEM048H36 K23M00P KB2023 06 19.31318 16 53 57.16 +20 30 19.2 18.3 rZEM048H36 K23M00P KB2023 06 19.31420 16 53 55.58 +20 29 56.6 18.4 rZEM048H36 K23M00P KB2023 06 19.31513 16 53 54.14 +20 29 35.6 18.2 rZEM048H36 Observer details: 104 San Marcello Pistoiese. Observers P. Bacci, M. Maestripieri. Measurer P. Bacci. 0.60-m f/4.0 reflector + CCD. 204 Schiaparelli Observatory. Observer L. Buzzi. 0.84-m f/3.5 reflector + CCD. 246 Klet Observatory-KLENOT. Observers M. Tichy, J. Ticha, M. Janda, M. Honkova. Measurer M. Tichy. 1.06-m f/2.7 Reflector + 2048x2048 CCD. 703 Catalina Sky Survey. Observer G. J. Leonard. Measurers E. J. Christensen, D. Fay, J. B. Fazekas, D. C. Fuls, A. R. Gibbs, A. D. Grauer, H. Groeller, J. K. Hogan, R. A. Kowalski, S. M. Larson, G. J. Leonard, D. Rankin, R. L. Seaman, A. Serrano, F. C. Shelly, K. W. Wierzchos. 0.68-m Schmidt + 10K CCD. 900 Moriyama. Observer Y. Ikari. 0.26-m f/7.0 reflector + CCD. C40 Kuban State University Astrophysical Observatory. Observers A. Ivanov, A. Barcov, V. Ivanov, V. Lysenko, N. Yakovenko, N. Ivanova, N. Gorbunov, G. Kurbatov, P. Shchukin, V. Roshchupko. Measurer A. Ivanov. 0.51-m f/8 reflector + CCD. C82 Osservatorio Astronomico Nastro Verde, Sorrento. Observer N. Ruocco. 0.35-m f/6.3 0.35 m f/6.3 Schmidt-Cassegrain + CCD. G02 KYSUCE Observatory, Kysucke Nove Mesto. Observer M. Urbanik. 0.40-m f/5.5 Corrected Dall-Kirkham + CCD. G34 Oberfrauendorf. Observer T. Felber. 0.35-m f/6.3 Schmidt-Cassegrain + CCD. G96 Mt. Lemmon Survey. Observer R. A. Kowalski. Measurers E. J. Christensen, D. Fay, J. B. Fazekas, D. C. Fuls, A. R. Gibbs, A. D. Grauer, H. Groeller, J. K. Hogan, R. A. Kowalski, S. M. Larson, G. J. Leonard, D. Rankin, R. L. Seaman, A. Serrano, F. C. Shelly, K. W. Wierzchos. 1.5-m reflector + 10K CCD. H36 Sandlot Observatory, Scranton. Observer G. Hug. 0.56-m f/4.2 .56 meter reflector + CMOS. I41 Palomar Mountain--ZTF. Observers K. Venkataramani, T. Prince, G. Helou, Q.-Z. Ye, D. Kulkarni, V. Swain, C. Y. Hsu, Y. Cheng. Measurers F. Masci, D. Shupe, K. Venkataramani, Q.-Z. Ye. 1.2-m f/2.44 Oschin-Schmidt + CCD. I52 Steward Observatory, Mt. Lemmon Station. Observer G. J. Leonard. Measurers E. J. Christensen, D. Fay, J. B. Fazekas, D. C. Fuls, A. R. Gibbs, A. D. Grauer, H. Groeller, J. K. Hogan, R. A. Kowalski, S. M. Larson, G. J. Leonard, D. Rankin, R. L. Seaman, A. Serrano, F. C. Shelly, K. W. Wierzchos. 1.0-m prime focus + CCD. J04 ESA Optical Ground Station, Tenerife. Observers D. Abreu, F. Ocana, M. Micheli, L. Conversi. Measurers F. Ocana, M. Micheli, R. Kresken, A. Knofel, M. Busch. 1.0-m f/4.4 reflector + CCD. J95 Great Shefford. Observer P. Birtwhistle. 0.41-m f/6.3 Schmidt-Cassegrain + CCD. L01 Visnjan Observatory, Tican. Observer K. Korlevic. 1.0-m f/2.9 reflector + CCD. M21 Schiaparelli Southern Observatory, Hakos. Observers A. Aletti, F. Bellini, L. Buzzi, G. Galli. Measurer L. Buzzi. 0.36-m f/8.4 reflector + CCD. Y05 SONEAR Wykrota-CEAMIG, Serra da Piedade. Observer C. Jacques. 0.45-m f/2.9 reflector + CMO. Z80 Northolt Branch Observatory. Observer G. Wells. Measurers G. Wells, D. Bamberger. 0.25-m f/8.0 Ritchey-Chretien + CCD. Orbital elements: 2023 MP Earth MOID = 0.0095 AU Epoch 2023 Feb. 25.0 TT = JDT 2460000.5 Veres M 308.90480 (2000.0) P Q n 1.35414941 Peri. 219.68467 -0.51118735 -0.84434110 a 0.8091425 Node 261.61816 +0.82401533 -0.42837541 e 0.4735636 Incl. 9.33933 +0.24430763 -0.32184254 P 0.73 H 25.08 G 0.15 U 6 Residuals in seconds of arc 230618 I41 0.1- 1.1+ 230618 246 0.2+ 0.3+ 230618 204 0.2+ 0.0 230618 I41 0.2- 0.7+ 230618 246 0.2- 0.1- 230618 C40 0.1- 0.6- 230618 G96 3.4- 3.1- 230618 246 0.3+ 0.3- 230618 Z80 0.0 0.3+ 230618 G96 0.5+ 0.4+ 230618 246 0.0 0.4- 230618 204 0.2+ 0.0 230618 703 1.0+ 0.1+ 230618 246 0.1+ 0.6- 230618 C40 0.1+ 0.6+ 230618 703 0.8+ 1.0+ 230618 246 0.1+ 0.3- 230618 204 0.3+ 0.3+ 230618 G96 0.3+ 0.3- 230618 246 0.6+ 0.2- 230618 L01 0.2- 0.4- 230618 703 0.2+ 0.1- 230618 246 0.2+ 0.6- 230618 L01 0.3- 0.2- 230618 703 0.2+ 0.3+ 230618 246 0.1+ 0.4- 230618 J95 0.1+ 0.1- 230618 I52 0.2- 0.2- 230618 246 0.3- 0.5- 230618 J95 0.1- 0.1- 230618 I52 0.1- 0.3- 230618 G02 0.1- 0.5- 230618 L01 0.2- 0.4- 230618 I52 0.1- 0.3- 230618 G02 0.8- 0.9- 230618 L01 0.0 0.3- 230618 I52 0.3- 0.2- 230618 G02 0.1+ 0.6- 230618 L01 0.1- 0.2- 230618 I41 0.7+ 0.2- 230618 G34 0.1- 1.0- 230618 J95 0.1+ 0.0 230618 I41 0.3- 1.0- 230618 G34 0.4- 0.6- 230618 L01 0.0 0.3- 230618 I52 0.2- 0.3- 230618 G34 0.3- 0.6- 230618 J95 0.0 0.2- 230618 I52 0.1- 0.3- 230618 G34 0.1+ 0.2- 230618 L01 0.0 0.5- 230618 I52 0.0 0.3- 230618 G34 0.2- 0.1- 230618 Y05 0.2+ 0.2+ 230618 I52 0.7- 0.2- 230618 G34 0.0 0.6- 230619 Y05 0.5+ 0.4+ 230618 900 0.2+ 0.3- 230618 J04 0.1+ 0.4- 230619 Y05 0.1+ 0.4+ 230618 900 0.2- 0.7+ 230618 J04 0.2+ 0.0 230619 M21 0.1- 0.8+ 230618 C82 1.0- 2.1- 230618 104 0.1- 0.0 230619 M21 0.6- 0.7+ 230618 C82 0.2- 0.9- 230618 104 0.1- 0.7- 230619 703 0.1+ 0.4+ 230618 C82 0.3+ 0.5- 230618 104 0.2+ 0.1- 230619 703 0.3- 0.0 230618 C82 0.4+ 0.6- 230618 Z80 0.9+ 0.9- 230619 703 0.2+ 0.3+ 230618 246 0.6+ 0.2- 230618 Z80 0.8- 1.2+ 230619 703 0.3- 0.1- 230618 246 0.0 0.0 230618 C40 0.1+ 0.9- 230619 H36 0.4- 0.2- 230618 246 0.4- 0.2+ 230618 C40 1.0- 0.5- 230619 H36 0.2+ 0.5- 230618 C82 0.1+ 1.2- 230618 C40 0.2- 0.3- 230619 H36 0.1+ 0.1- 230618 246 0.5- 0.1- 230618 C40 0.1+ 0.2- 230619 H36 0.1- 0.2- Ephemeris: 2023 MP a,e,i = 0.81, 0.47, 9 q = 0.4260 Date TT R. A. (2000) Decl. Delta r Elong. Phase V 2023 05 20 03 38 37.7 +05 34 20 0.2123 0.8077 14.3 162.0 33.0 ... 2023 06 04 03 23 29.0 +07 02 02 0.09192 0.9318 25.0 152.6 28.7 ... 2023 06 12 02 48 45.1 +16 17 30 0.03417 0.9879 35.8 143.0 25.0 ... 2023 06 18 17 45 45.0 +32 08 27 0.01629 1.0253 124.5 54.8 18.2 2023 06 19 17 02 24.5 +22 38 29 0.02207 1.0311 132.7 46.4 18.6 2023 06 20 16 40 38.1 +16 55 49 0.02855 1.0369 136.1 42.8 19.1 ... 2023 06 26 16 03 31.5 +05 37 52 0.07102 1.0690 136.4 41.0 21.1 ... 2023 07 04 15 55 25.4 +01 50 05 0.1298 1.1059 130.8 44.1 22.6 ... 2023 07 19 15 58 20.5 -01 20 48 0.2427 1.1571 120.0 49.5 24.2 M. P. C. Staff (C) Copyright 2023 MPC M.P.E.C. 2023-M48
